Retour au catalogue

ATLAS 2AS CENTAUR R/B

ActifMEO
NORAD 26858·ROCKET BODY·🇺🇸 United States

Lancé Jun 19, 2001 depuis Cape Canaveral Space Force Station

Loading…

Prochains Passages (prochaines 24 heures)

TLE

FraisSource: Space-Track

Époque: Sep 11, 2026, 04:17 UTC

1 26858U 01026B   26254.17878396 -.00000048  00000-0  00000+0 0  9998
2 26858  45.0170 321.2520 0093529 140.5608 233.6903  4.15708945383143

Suivez ATLAS 2AS CENTAUR R/B en temps réel avec AllMySat

Download on the App Store